Wind_Gust
14 15 15 15 15 17 17 17 16 16 15 15 16 15 15 14 13 14 13 14 14 14 13 13 12 11 11 11 11 13 14 13 13 13 13 12 13 11 12 12 11 11
13 13 14 15 14 15 17 17 17 17 16 15 16 16 15 14 13 13 14 15 15 15 14 13 13 12 11 12 11 11 13 12 12 12 12 11 11 12 12 11 10 10
13 14 14 14 16 14 17 17 17 17 17 17 17 16 16 14 14 13 14 14 15 15 14 13 13 13 12 12 11 12 13 12 12 12 12 13 12 12 11 10 11 10
13 14 15 16 16 16 15 17 16 16 15 18 19 19 17 16 15 14 13 13 14 14 13 13 12 13 13 13 11 13 12 12 12 11 11 11 11 12 11 11 10 11
13 15 15 17 17 17 16 15 16 14 13 13 17 18 19 17 16 16 14 14 13 14 14 13 13 13 12 12 11 12 11 12 10 10 11 11 11 10 10 10 11 11
13 15 16 17 18 17 16 15 16 17 14 12 13 16 18 18 17 16 15 14 14 14 14 14 14 13 12 12 11 11 10 11 11 9 12 11 11 9 11 10 10 10
13 14 15 17 17 17 15 15 14 15 14 12 13 14 17 18 17 17 17 15 15 15 15 14 14 13 12 11 12 12 11 11 10 9 10 11 10 10 10 8 9 11
12 12 14 16 15 16 15 17 15 14 13 12 12 13 15 17 19 17 16 16 16 16 15 15 14 13 12 11 12 12 11 10 10 10 9 11 7 8 9 8 7 8
12 13 14 14 15 16 16 18 16 14 14 14 13 14 14 16 18 18 17 17 17 16 16 15 14 14 12 12 11 12 13 11 9 9 9 9 8 8 9 9 8 7
13 15 14 15 16 17 18 17 17 16 16 15 14 14 16 14 17 18 18 17 18 18 18 16 16 14 14 13 13 12 11 12 11 10 9 8 10 9 9 8 8 8
12 15 16 16 16 16 17 17 16 17 16 17 15 15 16 16 16 17 18 19 19 20 20 18 17 16 15 13 12 11 11 11 11 10 9 8 8 10 8 12 11 10
13 14 15 15 16 16 17 17 16 16 16 16 17 19 17 16 17 17 17 18 16 18 18 19 18 17 16 14 13 12 11 10 10 10 10 10 10 10 11 12 13 12
14 15 16 16 16 13 12 14 19 18 18 18 18 19 20 19 19 18 17 17 18 17 18 18 18 17 17 16 14 14 12 13 13 12 12 12 14 14 14 13 13 13
15 14 14 15 16 17 16 15 18 19 20 20 20 20 20 20 20 20 19 18 18 17 16 15 15 16 17 16 16 15 13 13 14 13 13 14 13 16 16 16 16 16
10 9 9 12 14 16 16 17 20 21 20 20 19 19 19 19 18 19 19 19 19 18 19 16 17 16 15 15 15 15 15 14 13 14 14 14 15 16 16 16 17 18
10 10 11 10 11 12 15 15 16 18 18 19 19 18 18 18 18 18 18 18 19 19 18 17 16 16 10 5 3 13 15 14 13 13 14 14 14 15 15 16 16 17
8 8 8 11 10 10 10 13 15 15 17 18 18 18 17 17 16 17 16 16 16 16 16 16 16 15 13 10 9 7 12 15 14 13 13 13 14 14 14 13 14 15
8 8 8 8 10 11 12 13 14 15 16 16 16 17 17 15 14 14 14 13 14 16 16 15 14 9 11 10 9 10 8 14 13 12 12 12 13 13 13 12 12 12
8 8 9 9 10 11 11 11 13 13 14 14 14 13 15 16 15 12 15 10 13 17 17 16 14 9 7 8 9 9 9 11 14 12 11 11 11 11 11 11 11 12
9 9 9 9 9 10 11 12 13 14 12 12 11 11 11 11 12 13 15 14 13 14 15 14 13 9 6 8 9 8 8 8 10 11 9 9 10 9 9 10 10 11
10 10 8 8 8 10 11 12 13 12 13 12 12 11 11 11 13 12 12 14 14 14 14 13 11 8 5 7 7 9 9 5 9 9 8 8 7 8 7 7 8 8
9 10 9 8 8 9 11 12 12 12 13 14 14 13 14 15 14 15 14 13 13 15 13 13 12 5 5 7 9 10 10 12 12 11 10 9 10 9 8 8 8 8
11 10 9 8 8 10 11 11 12 12 12 14 15 16 17 18 17 17 18 18 18 17 16 14 15 9 5 7 9 11 10 13 12 12 11 11 10 9 10 12 13 13
11 12 12 12 12 13 13 10 10 11 14 14 18 19 19 19 18 18 17 16 15 12 9 10 12 10 5 7 7 11 10 13 13 12 12 11 12 10 11 14 16 15
13 12 12 12 13 12 11 11 12 14 14 14 14 14 14 16 16 17 16 14 13 13 3 7 12 9 4 7 8 9 11 13 13 13 14 13 13 14 12 14 15 13
13 13 13 13 13 12 11 11 11 13 14 15 14 16 17 17 17 17 16 15 13 13 12 11 12 12 11 7 8 8 10 14 13 12 14 15 14 15 15 14 15 16
Wind_Speed
6 7 7 6 6 7 7 8 7 7 7 6 6 6 6 6 5 6 6 6 7 6 6 6 5 4 4 4 4 5 6 5 5 5 5 5 5 5 4 5 5 4
6 6 6 6 6 7 7 7 8 8 8 7 7 7 6 6 6 6 6 7 7 7 6 6 6 5 4 5 4 4 5 5 5 4 4 5 5 5 5 5 4 4
6 7 7 7 7 8 8 7 8 8 7 8 9 7 7 6 6 6 6 6 7 7 6 6 6 5 5 5 5 5 5 5 5 5 5 5 5 5 4 4 5 4
7 7 7 8 8 8 7 7 7 7 7 7 9 9 7 7 7 7 6 6 6 6 6 6 5 5 6 5 5 5 5 5 5 4 4 4 4 4 4 4 4 4
7 7 7 8 8 8 8 7 7 6 6 5 7 9 9 8 8 7 6 6 6 6 6 6 6 6 5 5 5 5 4 4 3 3 4 4 4 4 3 3 4 4
6 7 8 8 9 8 7 6 6 7 6 6 6 7 8 9 8 8 7 7 6 6 6 6 6 5 5 5 4 4 3 4 3 3 4 4 4 3 3 3 3 3
6 7 8 8 9 9 8 7 6 7 6 5 5 6 8 9 9 9 8 7 7 7 7 6 6 5 4 4 5 5 4 4 3 2 3 3 3 3 2 2 2 3
6 6 6 7 8 9 8 8 7 6 6 5 5 6 7 8 10 8 8 8 7 7 7 6 6 6 4 4 5 5 5 3 3 3 3 3 1 1 2 1 1 1
5 5 6 7 8 8 8 9 8 7 6 6 6 6 6 7 8 9 9 8 8 8 7 7 6 6 5 5 4 4 5 4 3 2 2 3 2 2 1 2 1 1
5 5 6 6 7 7 9 9 8 8 7 7 6 6 7 6 8 9 9 9 9 9 8 8 7 6 6 5 5 4 4 5 4 3 2 1 1 0 1 1 0 1
6 6 7 6 7 7 8 9 8 8 8 8 7 6 7 7 7 8 9 9 9 10 10 9 8 7 6 5 5 4 4 4 4 3 3 2 1 0 1 2 2 2
6 6 7 7 6 6 8 8 8 8 8 8 8 8 8 8 8 8 8 8 8 8 9 9 9 8 7 6 5 5 4 3 3 3 3 3 3 3 2 2 2 3
7 7 7 7 7 5 5 7 8 8 9 9 8 9 9 9 8 8 7 7 8 8 8 8 8 8 7 7 6 5 4 4 5 5 5 5 5 5 5 5 5 4
7 7 7 7 7 7 7 6 7 8 9 9 9 10 9 9 9 9 8 7 7 7 6 6 6 6 6 6 6 6 5 5 5 5 5 5 5 5 5 6 7 7
4 3 3 5 7 7 7 6 8 10 9 9 8 8 7 8 8 8 7 8 7 7 7 7 6 6 5 5 6 6 6 5 5 5 5 5 5 6 6 7 7 8
4 4 4 4 4 5 6 7 8 8 7 7 7 7 7 7 7 7 7 7 7 8 7 6 5 5 5 4 2 3 6 5 5 5 5 5 5 5 5 6 7 7
2 2 2 3 3 4 4 5 6 6 7 7 7 7 7 6 6 6 6 6 6 5 5 4 4 3 11 8 7 6 5 5 5 5 5 5 5 5 5 5 6 6
1 2 2 2 3 4 4 5 5 5 6 5 6 7 7 5 4 2 2 2 2 4 4 4 3 8 10 9 7 8 7 5 5 4 3 4 4 4 4 4 4 3
1 0 0 1 2 3 3 3 4 4 4 5 3 4 6 5 5 1 1 1 3 4 5 5 5 7 6 6 6 7 8 8 5 4 4 3 3 3 3 3 4 4
2 2 1 1 1 2 3 4 4 4 3 3 3 3 4 3 4 2 4 4 4 6 5 5 5 6 5 5 6 7 7 7 2 3 2 1 1 1 1 2 2 3
2 2 1 1 0 1 3 4 4 4 5 4 4 4 4 4 4 5 5 4 5 5 5 5 4 6 5 6 6 7 7 4 3 2 2 2 1 2 1 1 1 2
1 2 1 0 1 1 3 3 4 4 5 5 6 5 6 7 5 4 4 3 3 6 6 5 3 4 4 6 8 8 8 5 4 4 3 3 3 2 1 1 1 0
3 3 2 2 1 3 3 4 4 5 5 5 6 6 6 7 7 6 6 8 9 8 8 6 6 6 5 6 8 9 7 5 5 4 4 4 3 3 3 4 5 5
3 4 4 5 4 5 5 4 4 4 5 5 6 7 8 8 8 8 7 7 7 5 3 4 4 5 4 6 6 9 7 4 5 4 4 4 4 3 4 5 8 11
4 4 4 5 5 5 4 4 4 5 6 5 6 6 6 7 7 7 7 6 5 6 2 2 5 4 3 7 7 9 6 5 5 4 5 4 5 5 4 5 6 8
4 5 5 5 5 5 4 4 3 5 6 7 6 6 7 7 7 7 8 6 5 6 5 4 5 5 5 6 7 7 8 5 5 4 5 5 5 6 6 6 6 6
Wind_Direction
152 143 138 141 138 138 142 143 142 140 133 135 131 129 119 110 104 100 98 90 88 87 83 79 77 70 74 70 52 58 66 58 55 51 54 54 55 49 47 44 43 49
144 134 133 133 136 142 147 151 146 141 138 138 133 129 125 125 121 120 115 113 107 99 94 91 88 88 82 79 71 73 74 68 66 62 71 66 81 76 62 57 52 39
145 138 140 143 146 151 155 157 150 145 146 141 137 136 136 135 135 129 129 120 112 107 101 96 94 93 94 92 91 84 84 79 68 58 54 59 56 63 66 58 59 48
155 151 151 149 151 158 162 167 159 151 149 153 149 141 144 145 141 138 130 128 118 113 108 104 102 99 94 98 99 93 94 89 81 82 81 76 65 64 59 58 48 48
151 156 160 157 159 164 167 175 165 150 151 162 150 142 145 145 148 143 143 134 128 124 121 118 113 108 110 101 100 105 110 105 108 93 86 89 80 73 67 67 64 60
166 168 168 166 165 168 170 167 161 160 167 166 162 148 147 151 149 147 145 146 141 134 136 131 127 123 117 117 114 110 115 102 99 119 112 107 114 115 107 103 102 85
172 176 173 171 171 167 169 159 168 166 176 173 168 160 156 154 150 148 148 148 146 147 141 140 134 133 131 134 126 119 105 103 120 117 120 107 107 120 123 111 77 90
174 175 177 174 171 168 166 159 168 171 173 187 180 166 168 157 150 146 150 154 149 144 144 140 143 134 143 139 129 127 121 127 133 130 100 96 100 99 91 72 112 99
179 182 181 177 175 174 176 166 167 171 176 185 187 171 175 165 151 155 157 158 154 152 148 149 148 147 149 149 140 148 143 137 132 113 122 126 148 153 185 98 163 124
198 195 189 186 184 185 183 172 169 175 179 185 187 180 176 171 163 163 163 164 161 156 155 158 155 153 158 157 152 148 159 149 150 151 155 162 119 222 145 166 215 240
206 208 200 194 195 193 190 185 176 180 184 189 184 190 185 177 175 170 170 173 170 170 164 163 161 159 154 153 146 164 164 165 172 161 163 183 180 118 334 317 311 275
196 201 203 195 197 201 198 192 189 193 189 193 192 195 193 191 186 181 186 180 183 181 173 168 169 165 167 167 165 171 189 192 189 174 175 187 181 192 213 245 274 298
199 202 198 195 195 202 207 212 209 207 203 199 196 201 197 202 199 194 188 188 190 190 188 181 172 177 175 170 176 181 196 203 186 199 208 202 207 200 191 201 213 228
194 201 206 209 211 211 213 224 228 225 226 213 204 206 203 206 205 203 197 202 194 194 195 179 171 184 187 187 194 186 196 213 213 210 213 209 215 220 216 216 217 214
157 165 196 200 209 215 215 213 237 236 228 222 208 208 208 211 211 214 205 207 194 191 183 178 189 191 196 197 199 192 196 203 215 214 215 219 219 216 211 216 218 213
136 158 185 188 213 218 217 217 216 216 223 221 217 215 208 209 213 218 221 218 212 199 193 184 189 202 118 99 331 216 191 202 191 210 213 216 225 231 226 224 227 225
129 133 178 199 204 212 219 226 219 209 217 222 222 220 221 219 223 220 225 228 227 220 207 212 218 189 135 157 178 264 253 199 209 209 209 216 224 227 234 227 223 224
130 157 202 183 205 213 217 222 224 216 216 223 224 225 224 223 228 249 275 257 269 276 270 251 237 117 153 163 185 202 247 236 198 208 193 208 215 225 224 228 240 230
125 121 35 199 230 219 208 222 228 227 220 221 244 347 340 332 323 8 145 260 232 227 234 254 249 125 144 162 173 200 223 249 192 177 196 197 218 229 252 246 224 209
73 85 103 104 190 216 216 220 216 216 211 185 117 150 158 143 153 229 278 270 273 270 249 216 213 107 129 151 170 183 200 241 172 172 191 192 195 230 251 268 257 252
34 52 37 71 158 202 222 226 223 203 194 180 212 200 177 164 169 194 204 228 241 250 241 223 96 100 135 162 159 173 177 227 164 168 175 143 104 74 8 354 305 286
360 45 65 177 230 238 231 217 205 198 195 184 190 180 167 173 185 195 181 187 239 244 236 214 117 119 162 166 174 168 166 198 166 166 161 130 117 88 98 94 84 312
326 289 270 246 218 230 225 233 220 208 201 184 184 183 178 175 172 174 171 177 186 198 200 188 142 142 146 168 173 166 193 200 172 184 152 142 113 118 113 71 41 14
327 316 295 284 273 262 260 243 222 206 191 182 176 169 167 161 159 158 159 158 166 176 188 187 134 105 124 149 176 189 241 223 191 186 155 146 136 124 99 85 58 30
315 315 313 304 284 268 278 258 209 188 171 182 175 171 156 158 164 160 157 151 136 125 57 174 126 122 144 155 184 199 238 223 218 185 177 171 152 133 117 102 88 59
314 308 308 302 299 300 279 260 225 189 176 190 187 190 174 171 172 163 157 143 137 144 152 157 140 138 146 170 184 199 240 281 230 203 190 171 174 146 134 117 107 99